This is the latest recevied weather packets stored in our database for station/object WD9U. If no packets are shown the sender has not sent any weather packets the latest 10 day(s).
| Time | Temp. | Humidity | Pressure | Rain* | Wind** | Luminosity | Snow |
|---|---|---|---|---|---|---|---|
| 1777314775 | 5° C | 100% | 1003.4 hPa | 0.25 mm | - | 43 W/m² | - |
| 1777314415 | 5° C | 100% | 1003.5 hPa | 0.25 mm | - | 45 W/m² | - |
| 1777314055 | 5° C | 100% | 1003.6 hPa | 0.25 mm | - | 50 W/m² | - |
| 1777313695 | 5° C | 100% | 1003.8 hPa | 0 mm | - | 56 W/m² | - |
| 1777313335 | 5° C | 100% | 1003.8 hPa | 0 mm | - | 72 W/m² | - |
| 1777312975 | 5° C | 100% | 1004 hPa | 0 mm | - | 60 W/m² | - |
| 1777312615 | 5° C | 100% | 1003.8 hPa | 0 mm | - | 134 W/m² | - |
| 1777312255 | 5° C | 100% | 1004.1 hPa | 0 mm | - | 136 W/m² | - |
| 1777311894 | 5° C | 100% | 1004.3 hPa | 0 mm | - | 102 W/m² | - |
| 1777311534 | 5° C | 100% | 1004.3 hPa | 0 mm | - | 122 W/m² | - |
| 1777311174 | 5° C | 100% | 1004.5 hPa | 0 mm | - | 110 W/m² | - |
| 1777310814 | 4.44° C | 100% | 1004.6 hPa | 0 mm | - | 109 W/m² | - |
| 1777310454 | 4.44° C | 100% | 1004.7 hPa | 0 mm | - | 93 W/m² | - |
| 1777310094 | 4.44° C | 100% | 1005 hPa | 0 mm | - | 60 W/m² | - |
| 1777309734 | 4.44° C | 100% | 1005.1 hPa | 0 mm | - | 70 W/m² | - |
| 1777309374 | 4.44° C | 100% | 1005.2 hPa | 0 mm | - | 103 W/m² | - |
| 1777309014 | 4.44° C | 100% | 1005.2 hPa | 0.25 mm | - | 71 W/m² | - |
| 1777308654 | 4.44° C | 100% | 1005.4 hPa | 0.25 mm | - | 94 W/m² | - |
| 1777308294 | 4.44° C | 100% | 1005.9 hPa | 0.25 mm | - | 68 W/m² | - |
| 1777307934 | 4.44° C | 100% | 1019.6 hPa | 0.25 mm | - | 49 W/m² | - |
| 1777307574 | 4.44° C | 100% | 1006 hPa | 0.51 mm | - | 58 W/m² | - |
| 1777307213 | 4.44° C | 100% | 1006.2 hPa | 0.51 mm | - | 59 W/m² | - |
| 1777306854 | 4.44° C | 100% | 1006.2 hPa | 0.51 mm | - | 56 W/m² | - |
| 1777306493 | 3.89° C | 100% | 1006.4 hPa | 0.76 mm | - | 84 W/m² | - |
| 1777306247 | 3.89° C | 100% | 1006.5 hPa | 0.76 mm | - | 78 W/m² | - |
* Rain latest hour (hover to see other rain measurements)
** Current wind speed in m/s (hover to see current wind gust speed)